星链-31443 (STARLINK-31443 )

导读 | 星芒AI

STARLINK-31443 是 SpaceX Starlink 卫星互联网项目中的一颗低轨道卫星,属于第6批部署的星链卫星之一。该卫星于2023年发射,运行在约550公里高度的近地轨道,旨在为全球提供高速互联网接入服务。Starlink 项目致力于构建一个由数千颗卫星组成的星座,以改善偏远地区的网络覆盖。STARLINK-31443 采用先进推进系统和激光通信技术,提高网络效率和稳定性,是现代卫星通信技术的重要组成部分。

基本信息
目录编号:
59393
目录名称:
STARLINK-31443
国际标识:
2024-062V
轨道中心:
EARTH
卫星名称:
星链-31443
卫星全名:
星链-31443 (STARLINK-31443 )
卫星状态:
在轨 (已飞行579 天)
发射日期:
2024-04-02 UTC
国别 :
美国 (US)
星等 :
--
轨道信息
数据来源 国际轨道数据
星历时间: 2025-11-01T13:03:23+0800
1天前
查看轨道信息
半长轴: 6842.613km
偏心率: 0.0000525
轨道倾角: 53.158°
近地点辐角 132.963°
升交点赤经 119.259°
平近点角 227.141°
近地点: 464.118km
远地点: 464.838km
周期: 93.884分钟
每日圈数: 15.33804
详细信息
固有亮度:
5
最大亮度:
0.3
卫星平台:
Starlink v2.0 mini
覆盖范围:
全球
运营商:
太空探索技术公司
运营商所在国:
美国
制造商(研发单位):
太空探索技术公司
制造商所在国:
美国
使用方式:
暂无
卫星简介
星链(Starlink)计划是由太空探索技术公司(SpaceX)提出的一个巨型低轨卫星互联网星座项目,计划在2019年至2024年间在太空搭建由约1.2万颗卫星组成的“星链”网络,其中1584颗将部署在地球上空550千米处的近地轨道,并从2020年开始工作。该卫星仍在工作。
2D轨道图
3D轨道图
轨道高度分析图
轨道倾角分析图
轨道综合分析图
查看轨道综合分析图